Regional Weather Roundup
Issued by NWS Cleveland, OH

Home | Current Version | Previous Version | Graphics & Text | Print | Product List | Glossary On
Versions: 1 2 3 4 5 6 7 8 9 10 11 12 13 14 15 16 17 18 19 20 21 22 23 24 25 26 27 28 29 30 31 32 33 34 35 36 37 38 39 40 41 42 43 44 45 46 47 48 49 50
969
ASUS41 KCLE 231310
RWRCLE
OHIO REGIONAL WEATHER ROUNDUP
NATIONAL WEATHER SERVICE WILMINGTON, OH
900 AM EDT TUE MAY 23 2017

NOTE: "FAIR" INDICATES FEW OR NO CLOUDS BELOW 12,000 FEET WITH NO
SIGNIFICANT WEATHER AND/OR OBSTRUCTIONS TO VISIBILITY.

OHZ001>008-015>018-024>027-034-035-043-044-231400-
   NORTHWEST OHIO

CITY           SKY/WX    TMP DP  RH WIND       PRES   REMARKS
DEFIANCE       FAIR      60  48  64 CALM      29.88F
FINDLAY        FAIR      60  50  69 SE5       29.89S
TOLEDO EXPRESS FAIR      61  50  67 SW6       29.88F
TOLEDO EXEC    PTSUNNY   62  50  64 SW5       29.90S
LIMA           FAIR      59  52  77 SE8       29.89S
$$

OHZ009>014-019>023-028>033-038-089-231400-
   NORTHEAST OHIO

CITY           SKY/WX    TMP DP  RH WIND       PRES   REMARKS
CLE-HOPKINS    PTSUNNY   63  49  60 SW6       29.95R
CLE-LAKEFRONT  FAIR      63  48  58 S6        29.92R
CUY CO. ARPT   MOSUNNY   64  50  59 S7        29.94R
LORAIN-ELYRIA  FAIR      59  47  64 S5        29.93R
ASHTABULA      FAIR      58  51  78 SE3       29.94F
AKRON-CANTON   PTSUNNY   60  48  64 SE3       29.94R
WOOSTER        FAIR      57  49  74 CALM      29.94R
MANSFIELD      FAIR      62  48  60 SE6       29.93R
YOUNGSTOWN     CLOUDY    56  50  80 E5        29.96S
$$

OHZ042-051>053-060>062-070>072-077>081-231400-
  SOUTHWEST OHIO

CITY           SKY/WX    TMP DP  RH WIND       PRES   REMARKS
CINC-COVINGTON PTSUNNY   60  51  72 E7        29.86F
CINC-LUNKEN    FAIR      57  54  89 NE5       29.88F
HAMILTON       FAIR      60  53  77 CALM      29.89F
DAYTON         PTSUNNY   61  48  62 SE6       29.91S
WRIGHT-PAT AFB FAIR      62  52  70 E5        29.90F
DAYTON GENERAL FAIR      61  50  67 SE3       29.89F
WILMINGTON     FAIR      59  52  77 E6        29.88F
$$

OHZ036-037-039>041-045>050-054>059-063>069-073>076-082>088-231400-
  CENTRAL AND SOUTHEAST OHIO

CITY           SKY/WX    TMP DP  RH WIND       PRES   REMARKS
COLUMBUS       PTSUNNY   60  50  69 SE7       29.91S
OSU AIRPORT    FAIR      60  50  69 E6        29.91F
BOLTON FIELD   SUNNY     59  52  77 SE5       29.92S
RICKENBACK AFB FAIR      59  51  76 E6        29.90F
NEWARK         FAIR      59  49  69 E5        29.92S
MARION         FAIR      62  48  60 S5        29.93R
LANCASTER      FAIR      61  54  77 CALM      29.92F
ZANESVILLE     FAIR      57  50  77 E6        29.92F
NEW PHILLY     FAIR      56  51  84 CALM      29.95R
$$




USA.gov is the U.S. government's official web portal to all federal, state and local government web resources and services.